This is the latest recevied weather packets stored in our database for station/object KB1RMA-4. If no packets are shown the sender has not sent any weather packets the latest 10 day(s).
| Time | Temp. | Humidity | Pressure | Rain* | Wind** | Luminosity | Snow |
|---|---|---|---|---|---|---|---|
| 1788394016 | 17.78° C | 89% | 1020.3 hPa | 0 mm | - | 0 W/m² | - |
| 1788393715 | 17.78° C | 89% | 1020.6 hPa | 0 mm | - | 0 W/m² | - |
| 1788393414 | 17.78° C | 88% | 1020.7 hPa | 0 mm | - | 0 W/m² | - |
| 1788393110 | 17.78° C | 88% | 1020.8 hPa | 0 mm | - | 0 W/m² | - |
| 1788392809 | 17.78° C | 88% | 1020.8 hPa | 0 mm | - | 0 W/m² | - |
| 1788392508 | 17.78° C | 88% | 1021 hPa | 0 mm | - | 0 W/m² | - |
| 1788392203 | 18.33° C | 88% | 1021.2 hPa | 0 mm | - | 0 W/m² | - |
| 1788391903 | 18.33° C | 87% | 1021.3 hPa | 0 mm | - | 0 W/m² | - |
| 1788391602 | 18.33° C | 87% | 1021.1 hPa | 0 mm | - | 0 W/m² | - |
| 1788391301 | 18.33° C | 87% | 1020.9 hPa | 0 mm | - | 0 W/m² | - |
| 1788391001 | 18.33° C | 87% | 1020.9 hPa | 0 mm | - | 0 W/m² | - |
| 1788390696 | 18.33° C | 87% | 1021.3 hPa | 0 mm | - | 0 W/m² | - |
| 1788390392 | 18.89° C | 87% | 1021.4 hPa | 0 mm | - | 3 W/m² | - |
| 1788390090 | 18.89° C | 87% | 1021.6 hPa | 0 mm | - | 7 W/m² | - |
| 1788389785 | 18.89° C | 86% | 1020.9 hPa | 0 mm | - | 11 W/m² | - |
| 1788389504 | 18.89° C | 86% | 1020.9 hPa | 0 mm | - | 16 W/m² | - |
| 1788389183 | 18.89° C | 86% | 1021.1 hPa | 0 mm | - | 20 W/m² | - |
| 1788388879 | 18.89° C | 86% | 1021.3 hPa | 0 mm | - | 25 W/m² | - |
| 1788388576 | 18.89° C | 86% | 1021.4 hPa | 0 mm | - | 29 W/m² | - |
| 1788388274 | 18.89° C | 86% | 1021.4 hPa | 0 mm | - | 34 W/m² | - |
| 1788387973 | 18.89° C | 85% | 1021.5 hPa | 0 mm | - | 40 W/m² | - |
| 1788387688 | 18.89° C | 85% | 1021.6 hPa | 0 mm | - | 46 W/m² | - |
| 1788387368 | 18.89° C | 85% | 1021.5 hPa | 0 mm | - | 46 W/m² | - |
| 1788387068 | 18.89° C | 85% | 1021.7 hPa | 0 mm | - | 42 W/m² | - |
| 1788386763 | 18.89° C | 85% | 1021.9 hPa | 0 mm | - | 45 W/m² | - |
* Rain latest hour (hover to see other rain measurements)
** Current wind speed in m/s (hover to see current wind gust speed)